Weather History for Pensacola NAS, FL

Change the Weather History Date:

Monday, October 29, 2012

  Actual Average Record
Temperature  
Mean Temperature 52 °F -  
Max Temperature 62 °F 75 °F 86 °F (2000)
Min Temperature 42 °F 56 °F 35 °F (2008)
Degree Days  
Heating Degree Days 13    
Growing Degree Days 2 (Base 50)    
Moisture  
Dew Point 35 °F    
Average Humidity 56    
Maximum Humidity 82    
Minimum Humidity 32    
Precipitation  
Precipitation 0.00 in - - ()
Sea Level Pressure  
Sea Level Pressure 30.03 in    
Wind  
Wind Speed 11 mph (NNW)    
Max Wind Speed 16 mph    
Max Gust Speed 24 mph    
Visibility 10 miles    
Events      
Averages and records for this station are not official NWS values.
T = Trace of Precipitation, MM = Missing Value Source: NWS Daily Summary

Daily Weather History Graph

Daily Weather History Graph

Search for Another Location

Airport:

Trip Planner

Search our weather history database for the weather conditions in past years. The results will help you decide how hot, cold, wet, or windy it might be!

Date:

Astronomy

Oct. 29, 2012 Rise Set
Actual Time 7:01 AM CDT 6:03 PM CDT
Civil Twilight 6:37 AM CDT 6:28 PM CDT
Nautical Twilight 6:08 AM CDT 6:56 PM CDT
Astronomical Twilight 5:40 AM CDT 7:24 PM CDT
Moon 5:58 PM CDT (10/29) 6:49 AM CDT (10/29)
Length of Visible Light 11h 51m
Length of Day
11h 02m
Full, 100% of the Moon is Illuminated
Oct 29
Full
Oct 29
Full
Nov 6
Last Quarter
Nov 13
New
Nov 20
First Quarter

Hourly Weather History & Observations

Time (CDT) Temp. Windchill Dew Point Humidity Pressure Visibility Wind Dir Wind Speed Gust Speed Precip Events Conditions
12:56 AM 50.0 °F - 37.9 °F 63% 30.04 in 10.0 mi NNW 11.5 mph - N/A   Clear
1:56 AM 48.0 °F - 37.9 °F 68% 30.05 in 10.0 mi NNW 9.2 mph 18.4 mph N/A   Clear
2:56 AM 46.9 °F - 37.9 °F 71% 30.05 in 10.0 mi NNW 10.4 mph - N/A   Clear
3:56 AM 46.0 °F 41.0 °F 37.0 °F 71% 30.05 in 10.0 mi NNW 10.4 mph - N/A   Clear
4:56 AM 45.0 °F 39.7 °F 37.0 °F 74% 30.05 in 10.0 mi NNW 10.4 mph 18.4 mph N/A   Clear
5:56 AM 43.0 °F 38.2 °F 37.0 °F 80% 30.06 in 10.0 mi North 8.1 mph - N/A   Clear
6:56 AM 42.1 °F 36.1 °F 37.0 °F 82% 30.07 in 10.0 mi NNW 10.4 mph - N/A   Clear
7:56 AM 44.1 °F 38.6 °F 37.0 °F 76% 30.09 in 10.0 mi NNW 10.4 mph - N/A   Clear
8:56 AM 46.9 °F - 36.0 °F 66% 30.09 in 10.0 mi North 13.8 mph 20.7 mph N/A   Clear
9:56 AM 52.0 °F - 36.0 °F 54% 30.08 in 10.0 mi NNW 13.8 mph 23.0 mph N/A   Clear
10:56 AM 55.9 °F - 35.1 °F 45% 30.07 in 10.0 mi North 16.1 mph 21.9 mph N/A   Clear
11:56 AM 57.0 °F - 34.0 °F 42% 30.04 in 10.0 mi North 12.7 mph 23.0 mph N/A   Partly Cloudy
12:56 PM 59.0 °F - 34.0 °F 39% 30.02 in 10.0 mi NW 12.7 mph 23.0 mph N/A   Clear
1:56 PM 61.0 °F - 33.1 °F 35% 29.99 in 10.0 mi NNW 12.7 mph 24.2 mph N/A   Clear
2:56 PM 62.1 °F - 33.1 °F 34% 29.97 in 10.0 mi NW 16.1 mph 21.9 mph N/A   Clear
3:56 PM 62.1 °F - 32.0 °F 32% 29.96 in 10.0 mi NNW 13.8 mph 21.9 mph N/A   Clear
4:56 PM 60.1 °F - 33.1 °F 36% 29.95 in 10.0 mi NW 12.7 mph 23.0 mph N/A   Clear
5:56 PM 55.9 °F - 34.0 °F 44% 29.97 in 10.0 mi NNW 8.1 mph 17.3 mph N/A   Clear
6:56 PM 54.0 °F - 35.1 °F 49% 29.99 in 10.0 mi NNW 6.9 mph - N/A   Clear
7:56 PM 52.0 °F - 36.0 °F 54% 30.00 in 10.0 mi NNW 8.1 mph - N/A   Clear
8:56 PM 51.1 °F - 35.1 °F 54% 30.01 in 10.0 mi NNW 8.1 mph - N/A   Clear
9:56 PM 50.0 °F - 35.1 °F 57% 30.03 in 10.0 mi NNW 10.4 mph - N/A   Clear
10:56 PM 48.9 °F - 35.1 °F 59% 30.03 in 10.0 mi NNW 10.4 mph - N/A   Clear
11:56 PM 46.9 °F - 35.1 °F 63% 30.03 in 10.0 mi NW 9.2 mph - N/A   Clear